Weather History for KFSO - November, 2013

Change the Weather History Date:

Monday, November 11, 2013

  Actual Average (KPBG) Record (KPBG)
Temperature  
Mean Temperature 38 °F 38 °F  
Max Temperature 44 °F 48 °F 63 °F (1966)
Min Temperature 33 °F 29 °F 15 °F (1956)
Degree Days  
Heating Degree Days 26 26  
Month to date heating degree days 271  
Since 1 July heating degree days 1054  
Cooling Degree Days 0 0  
Month to date cooling degree days 0  
Year to date cooling degree days 346  
Moisture  
Dew Point 29 °F    
Average Humidity 68    
Maximum Humidity 85    
Minimum Humidity 51    
Precipitation  
Precipitation 0.00 in - 1.30 in (1977)
Month to date precipitation  
Year to date precipitation  
Sea Level Pressure  
Sea Level Pressure 29.94 in    
Wind  
Wind Speed 10 mph (WSW)    
Max Wind Speed 15 mph    
Max Gust Speed 25 mph    
Visibility 10 miles    
Events Rain , Snow    
T = Trace of Precipitation, MM = Missing Value Source: NWS Daily Summary

Daily Weather History Graph

Daily Weather History Graph

Search for Another Location

Airport or City:

Trip Planner

Search our weather history database for the weather conditions in past years. The results will help you decide how hot, cold, wet, or windy it might be!

Date:

Astronomy

Nov. 11, 2013 Rise Set
Actual Time 6:44 AM EST 4:27 PM EST
Civil Twilight 6:13 AM EST 4:59 PM EST
Nautical Twilight 5:38 AM EST 5:34 PM EST
Astronomical Twilight 5:03 AM EST 6:08 PM EST
Moon 1:21 PM EST (11/11) 12:11 AM EST (11/11)
Length of Visible Light 10h 45m
Length of Day
9h 42m
Waxing Gibbous, 66% of the Moon is Illuminated
Nov 11
Waxing Gibbous
Nov 17
Full
Nov 25
Last Quarter
Dec 2
New
Dec 9
First Quarter

Hourly Weather History & Observations

Time (EST) Temp. Windchill Dew Point Humidity Pressure Visibility Wind Dir Wind Speed Gust Speed Precip Events Conditions
12:15 AM 38.3 °F 30.5 °F 33.8 °F 84% 29.87 in 10.0 mi West 12.7 mph 20.7 mph N/A   Overcast
12:35 AM 38.3 °F 30.9 °F 33.8 °F 84% 29.88 in 10.0 mi West 11.5 mph 23.0 mph N/A   Overcast
12:55 AM 38.3 °F 30.1 °F 33.8 °F 84% 29.90 in 10.0 mi West 13.8 mph 24.2 mph N/A   Overcast
1:15 AM 37.2 °F 29.1 °F 32.7 °F 84% 29.91 in 10.0 mi West 12.7 mph 24.2 mph N/A   Overcast
1:35 AM 37.0 °F 28.1 °F 32.2 °F 83% 29.92 in 7.0 mi WNW 15.0 mph 25.3 mph N/A Snow Light Snow
1:55 AM 36.3 °F 29.5 °F 31.6 °F 83% 29.94 in 10.0 mi West 9.2 mph 19.6 mph N/A Snow Light Snow
2:15 AM 36.5 °F 29.2 °F 31.1 °F 81% 29.95 in 10.0 mi West 10.4 mph 21.9 mph N/A   Overcast
2:35 AM 36.5 °F 31.0 °F 30.6 °F 79% 29.96 in 10.0 mi West 6.9 mph 17.3 mph N/A   Overcast
2:55 AM 37.0 °F 30.4 °F 30.0 °F 76% 29.97 in 10.0 mi West 9.2 mph 20.7 mph N/A   Overcast
3:15 AM 37.2 °F 31.9 °F 29.5 °F 74% 29.98 in 10.0 mi West 6.9 mph 19.6 mph N/A   Overcast
3:35 AM 37.6 °F 30.0 °F 29.7 °F 73% 30.00 in 10.0 mi West 11.5 mph 16.1 mph N/A   Overcast
3:55 AM 37.2 °F 31.2 °F 28.9 °F 72% 30.00 in 10.0 mi West 8.1 mph - N/A   Overcast
4:15 AM 37.0 °F 30.4 °F 28.8 °F 72% 30.01 in 10.0 mi West 9.2 mph 16.1 mph N/A   Overcast
4:35 AM 37.0 °F 30.4 °F 28.6 °F 71% 30.03 in 10.0 mi West 9.2 mph 17.3 mph N/A   Overcast
4:55 AM 37.2 °F 31.2 °F 28.8 °F 71% 30.04 in 10.0 mi West 8.1 mph - N/A   Overcast
5:15 AM 36.9 °F 31.4 °F 28.4 °F 71% 30.04 in 10.0 mi West 6.9 mph - N/A   Overcast
5:35 AM 36.0 °F 28.0 °F 27.7 °F 72% 30.05 in 10.0 mi West 11.5 mph 18.4 mph N/A   Overcast
5:55 AM 35.6 °F 31.7 °F 27.1 °F 71% 30.05 in 10.0 mi West 4.6 mph - N/A   Overcast
6:15 AM 35.6 °F 30.7 °F 27.3 °F 72% 30.06 in 10.0 mi West 5.8 mph - N/A   Overcast
6:35 AM 35.6 °F 29.2 °F 26.2 °F 69% 30.06 in 10.0 mi West 8.1 mph 18.4 mph N/A   Overcast
6:55 AM 35.6 °F 29.9 °F 25.9 °F 68% 30.08 in 10.0 mi West 6.9 mph 17.3 mph N/A   Overcast
7:15 AM 35.6 °F 28.6 °F 25.3 °F 66% 30.08 in 10.0 mi West 9.2 mph 16.1 mph N/A   Overcast
7:35 AM 35.6 °F 29.2 °F 25.0 °F 65% 30.09 in 10.0 mi West 8.1 mph - N/A   Overcast
7:55 AM 35.6 °F 29.9 °F 24.8 °F 65% 30.10 in 10.0 mi WNW 6.9 mph - N/A   Overcast
8:15 AM 35.6 °F 29.9 °F 24.8 °F 65% 30.09 in 10.0 mi West 6.9 mph - N/A   Overcast
8:35 AM 35.6 °F 29.9 °F 24.8 °F 65% 30.09 in 10.0 mi WNW 6.9 mph - N/A   Overcast
8:55 AM 35.6 °F 29.9 °F 24.8 °F 65% 30.09 in 10.0 mi WSW 6.9 mph - N/A   Overcast
9:15 AM 35.6 °F 29.2 °F 24.1 °F 63% 30.08 in 10.0 mi WSW 8.1 mph 16.1 mph N/A   Overcast
9:35 AM 35.6 °F 29.9 °F 23.7 °F 62% 30.08 in 10.0 mi WSW 6.9 mph - N/A   Overcast
9:55 AM 38.3 °F 33.2 °F 25.7 °F 61% 30.07 in 10.0 mi WSW 6.9 mph - N/A   Overcast
10:15 AM 38.5 °F - 24.8 °F 58% 30.05 in 10.0 mi Calm Calm - N/A   Scattered Clouds
10:35 AM 41.0 °F 36.4 °F 26.4 °F 56% 30.05 in 10.0 mi South 6.9 mph - N/A   Clear
10:55 AM 41.0 °F 35.8 °F 25.7 °F 55% 30.03 in 10.0 mi SW 8.1 mph - N/A   Scattered Clouds
11:15 AM 41.9 °F 36.3 °F 26.8 °F 55% 30.02 in 10.0 mi WSW 9.2 mph - N/A   Scattered Clouds
11:35 AM 42.1 °F 36.6 °F 26.6 °F 54% 30.00 in 10.0 mi SW 9.2 mph - N/A   Mostly Cloudy
11:55 AM 42.6 °F 37.8 °F 26.6 °F 53% 29.99 in 10.0 mi SSW 8.1 mph - N/A   Mostly Cloudy
12:15 PM 43.3 °F 38.1 °F 26.4 °F 51% 29.97 in 10.0 mi South 9.2 mph 16.1 mph N/A   Overcast
12:35 PM 43.3 °F 37.7 °F 26.4 °F 51% 29.96 in 10.0 mi SW 10.4 mph - N/A   Overcast
12:55 PM 43.5 °F 38.9 °F 27.3 °F 53% 29.95 in 10.0 mi SSW 8.1 mph - N/A   Overcast
1:15 PM 43.3 °F 38.6 °F 27.9 °F 54% 29.94 in 10.0 mi SSW 8.1 mph - N/A   Overcast
1:35 PM 43.3 °F 39.2 °F 27.5 °F 54% 29.93 in 10.0 mi South 6.9 mph - N/A   Overcast
1:55 PM 42.4 °F 38.1 °F 27.9 °F 56% 29.93 in 10.0 mi SSW 6.9 mph 18.4 mph N/A   Overcast
2:15 PM 42.1 °F 35.7 °F 29.5 °F 61% 29.93 in 10.0 mi SSW 11.5 mph 18.4 mph N/A   Overcast
2:35 PM 41.0 °F 35.2 °F 32.0 °F 70% 29.92 in 7.0 mi SSW 9.2 mph - N/A Rain Light Rain
2:55 PM 39.4 °F 33.8 °F 32.0 °F 75% 29.91 in 7.0 mi SSE 8.1 mph - N/A   Overcast
3:15 PM 40.6 °F 34.3 °F 33.4 °F 75% 29.89 in 10.0 mi SSE 10.4 mph 16.1 mph N/A   Overcast
3:35 PM 41.0 °F 35.8 °F 33.4 °F 74% 29.87 in 10.0 mi SE 8.1 mph - N/A   Mostly Cloudy
3:55 PM 41.0 °F 36.4 °F 33.3 °F 74% 29.86 in 10.0 mi SE 6.9 mph - N/A   Scattered Clouds
4:15 PM 41.0 °F 35.8 °F 32.9 °F 73% 29.84 in 10.0 mi SSE 8.1 mph - N/A   Mostly Cloudy
4:35 PM 42.1 °F 38.4 °F 29.5 °F 61% 29.84 in 10.0 mi South 5.8 mph - N/A   Overcast
4:55 PM 43.3 °F 38.6 °F 29.5 °F 58% 29.83 in 10.0 mi SSW 8.1 mph - N/A   Overcast
5:15 PM 43.3 °F 38.6 °F 28.9 °F 57% 29.83 in 10.0 mi South 8.1 mph 17.3 mph N/A   Overcast
5:35 PM 43.9 °F 39.9 °F 28.8 °F 55% 29.82 in 10.0 mi South 6.9 mph 18.4 mph N/A   Overcast
5:55 PM 43.9 °F 39.3 °F 29.3 °F 57% 29.82 in 10.0 mi SSW 8.1 mph - N/A   Overcast
6:15 PM 43.9 °F 38.3 °F 29.7 °F 57% 29.82 in 10.0 mi South 10.4 mph - N/A   Overcast
6:35 PM 44.1 °F 39.5 °F 30.7 °F 59% 29.82 in 10.0 mi SSW 8.1 mph 16.1 mph N/A   Overcast
6:55 PM 44.1 °F 39.0 °F 31.1 °F 60% 29.81 in 10.0 mi SSW 9.2 mph 17.3 mph N/A   Overcast
7:15 PM 44.1 °F 39.5 °F 31.8 °F 62% 29.81 in 10.0 mi South 8.1 mph - N/A   Overcast
7:35 PM 44.6 °F 39.7 °F 32.9 °F 64% 29.80 in 10.0 mi SSW 9.2 mph 21.9 mph N/A   Light Drizzle
7:55 PM 43.9 °F 36.8 °F 32.9 °F 65% 29.80 in 10.0 mi SW 15.0 mph 25.3 mph N/A   Drizzle
8:15 PM 43.9 °F 39.9 °F 33.4 °F 67% 29.80 in 10.0 mi SW 6.9 mph 23.0 mph N/A   Drizzle
8:35 PM 43.3 °F 36.5 °F 34.3 °F 71% 29.80 in 7.0 mi SW 13.8 mph 19.6 mph N/A   Drizzle
8:55 PM 43.3 °F 38.1 °F 34.7 °F 72% 29.80 in 7.0 mi SW 9.2 mph 23.0 mph N/A   Drizzle
9:15 PM 43.3 °F 37.7 °F 33.8 °F 69% 29.80 in 10.0 mi SW 10.4 mph 19.6 mph N/A   Light Drizzle
9:35 PM 43.3 °F 36.8 °F 34.5 °F 71% 29.81 in 7.0 mi WSW 12.7 mph 21.9 mph N/A   Drizzle
9:55 PM 35.6 °F 26.6 °F 30.9 °F 83% 29.85 in 2.0 mi West 13.8 mph 24.2 mph N/A Snow Light Snow
10:15 PM 34.7 °F 27.5 °F 30.6 °F 85% 29.87 in 5.0 mi WNW 9.2 mph 20.7 mph N/A Snow Light Snow
10:35 PM 33.1 °F 24.9 °F 28.4 °F 83% 29.87 in 10.0 mi West 10.4 mph 17.3 mph N/A   Overcast
10:55 PM 33.3 °F 25.1 °F 27.1 °F 78% 29.88 in 10.0 mi WNW 10.4 mph 18.4 mph N/A   Overcast
11:15 PM 35.1 °F 27.9 °F 26.6 °F 71% 29.90 in 10.0 mi West 9.2 mph 20.7 mph N/A   Overcast
11:35 PM 33.1 °F 26.1 °F 25.0 °F 72% 29.92 in 10.0 mi West 8.1 mph 18.4 mph N/A   Overcast
11:55 PM 33.1 °F 26.1 °F 26.4 °F 77% 29.93 in 10.0 mi West 8.1 mph 17.3 mph N/A   Overcast